ホームズ彗星

17P/Holmes (2021)

English version
Home page
Updated on May 13, 2024

---------------------------------------------------------------------

・ プロフィール

・ 写真集

・ 軌道要素

Epoch 2023 Feb. 25.0 TT = JDT 2460000.5
T 2021 Feb. 19.94791 TT                                 Rudenko
q   2.0829513            (2000.0)            P               Q
n   0.14203565     Peri.   24.56677     +0.97571860     +0.12574340
a   3.6380708      Node   326.62789     -0.21176821     +0.75064898
e   0.4274572      Incl.   19.02760     +0.05592354     +0.64862525
P   6.94
>From 2249 observations 2011 Jan. 5-2023 Jan. 22, mean residual 0".7.

・ 星図

・ 光度変化

        m1 =  11.5 + 5 logΔ + 12.0 log r  [    ,-240]  (              〜2020年 6月24日)
        m1 =   1.5 + 5 logΔ + 35   log r  [-240, 163]  (2020年 6月24日〜2021年 8月 1日)
        m1 = -11.0 + 5 logΔ + 60   log r  [ 163, 248]  (2021年 8月 1日〜2021年10月25日)
        m1 =   8.8 + 5 logΔ + 15.0 log r  [ 248,    ]  (2021年10月25日〜              )

---------------------------------------------------------------------

軌道要素はM.P.E.C. 2023-J29に掲載されたものです。
星図はステラナビゲータ Ver.8 (アストロアーツ) で作成したものです。
光度グラフはComet for Windowsで作成したものです。

---------------------------------------------------------------------

Copyright(C) Seiichi Yoshida (comet@aerith.net). All rights reserved.